Regional Weather Roundup
Issued by NWS Boston, MA

Current Version | Previous Version | Text Only | Print | Product List | Glossary Off
Versions: 1 2 3 4 5 6 7 8 9 10 11 12 13 14 15 16 17 18 19 20 21 22 23 24 25 26 27
000 ASUS41 KBOX 201910 RWRBOX REGIONAL WEATHER ROUNDUP NATIONAL WEATHER SERVICE TAUNTON MA 200 PM EST MON NOV 20 2017 NOTE: "FAIR" INDICATES FEW OR NO CLOUDS BELOW 12,000 FEET WITH NO SIGNIFICANT WEATHER AND/OR OBSTRUCTIONS TO VISIBILITY. MAZALL-202000- EASTERN MASSACHUSETTS CITY SKY/WX TMP DP RH WIND PRES REMARKS BOSTON MOSUNNY 41 17 38 W20G31 29.90R WCI 32 BEVERLY MOSUNNY 42 16 34 W20G26 29.87R LAWRENCE MOSUNNY 43 17 35 W20G29 29.88S BEDFORD MOSUNNY 39 16 39 W20G30 29.89R WCI 29 BLUE HILL N/A 38 17 42 W13G23 29.88R WCI 30 NORWOOD CLOUDY 44 18 35 W15G32 29.92R MARSHFIELD MOSUNNY 43 18 36 W12G24 29.91R PLYMOUTH MOSUNNY 41 17 38 W16G29 29.93R TAUNTON CLOUDY 41 18 39 W15G28 29.94R NEW BEDFORD PTSUNNY 54 19 25 W14 29.94R $$ MAZALL-202000- CAPE COD AND THE ISLANDS CITY SKY/WX TMP DP RH WIND PRES REMARKS FALMOUTH MOSUNNY 39 18 41 W16G30 29.95R WCI 30 HYANNIS MOSUNNY 41 18 39 W13G20 29.92R CHATHAM PTSUNNY 43 19 38 W10G21 29.94R PROVINCETOWN MOSUNNY 41 18 39 W21G31 29.91R WCI 32 NANTUCKET CLOUDY 41 22 46 W17G26 29.95R MARTHAS VNYRD CLOUDY 41 19 41 NW17G28 29.96R $$ MAZALL-202000- CENTRAL AND WESTERN MASSACHUSETTS CITY SKY/WX TMP DP RH WIND PRES REMARKS WORCESTER PTSUNNY 35 17 47 W16G25 29.88R WCI 25 FITCHBURG MOSUNNY 42 21 43 W15G25 29.90S ORANGE PTSUNNY 36 19 50 W10G18 29.90F WCI 28 SPRINGFIELD PTSUNNY 42 18 37 W15G21 29.92S WESTFIELD MOSUNNY 43 20 39 W9G18 29.92F NORTH ADAMS MOSUNNY 36 21 54 W13 29.89F WCI 27 PITTSFIELD CLOUDY 36 20 52 W10 29.87S WCI 28 $$ RIZALL-202000- RHODE ISLAND CITY SKY/WX TMP DP RH WIND PRES REMARKS PROVIDENCE NOT AVBL NEWPORT MOSUNNY 42 21 43 W10G21 29.95S BLOCK ISLAND PTSUNNY 43 22 43 W9G20 29.97S SMITHFIELD PTSUNNY 39 19 44 W14G26 29.93R WCI 31 WESTERLY MOSUNNY 44 19 36 VRB7 29.96F $$ CTZALL-202000- CONNECTICUT CITY SKY/WX TMP DP RH WIND PRES REMARKS BRADLEY INTL PTSUNNY 44 19 36 W14 29.94S HARTFORD CLOUDY 43 20 39 W10 29.96R BRIDGEPORT MOSUNNY 46 20 35 W24G32 29.98S DANBURY MOSUNNY 42 21 43 W15G24 29.99R GROTON MOSUNNY 44 19 36 W13G22 29.96S NEW HAVEN PTSUNNY 45 22 40 NW8G20 29.98S CHESTER FAIR 45 19 36 W13G23 29.95S MERIDEN PTSUNNY 44 20 38 W12G18 29.97R WILLIMANTIC PTSUNNY 43 21 41 W8 29.95F OXFORD PTSUNNY 39 20 46 W12G17 29.96R WCI 32 $$ MEZ002-015-021-024-NHZ003-005-008-011-012-014-VTZ005-008-202000- NORTHERN NEW ENGLAND CITY SKY/WX TMP DP RH WIND PRES REMARKS PORTLAND ME MOSUNNY 38 12 34 W22G33 29.81R WCI 27 BANGOR ME MOSUNNY 30 9 41 W14G25 29.73R WCI 19 CONCORD NH MOSUNNY 39 16 39 W9G28 29.83F MANCHESTER NH MOSUNNY 40 15 36 W12G24 29.84S NASHUA NH MOSUNNY 39 18 42 W12G25 29.88S WCI 32 PORTSMOUTH NH MOSUNNY 40 14 34 W18 29.81S WCI 31 JAFFREY NH MOSUNNY 35 20 54 W12G24 29.85S WCI 27 KEENE NH PTSUNNY 37 20 50 W14G20 29.88F WCI 28 BURLINGTON VT LGT SNOW 26 21 81 E3 29.89R MT. WASHINGTON SNOWSHWR 1 1 100 W60 N/A VSB 0 WCI -31 $$ NYZ052-076-202000- EASTERN NEW YORK CITY SKY/WX TMP DP RH WIND PRES REMARKS ALBANY PTSUNNY 41 20 43 W9 29.92F NEW YORK CITY MOSUNNY 47 21 35 W20G29 30.02R $$ ANZALL-202000- MARINE OBSERVATIONS STATION/POSITION TIME TEMP WIND PRES VSBY WAVE AIR SEA DIR/SP/G HT/PER (UTC) (F) (DEG/KT/KT) (MB) (MI) (FT/S) BOSTON BUOY 1750 41 50 270/ 23/ 27 1010.1 4/ 5 BUZZARDS BAY 1800 39 290/ 19/ 21 1014.6R NANTUCKET SOUND 1850 40 50 300/ 21/ 27 1013.6R 4/ 5 MASS BAY-STELLWA 1804 42 49 280/ 21/ 27 1010.4S 4/ 5 ISLE OF SHOALS 1800 38 280/ 23/ 26 1009.8R S OF BLOCK IS NOT AVBL $$ ......................KEY......................... SKY/WX - SKY CONDITION/PRESENT WEATHER TMP - TEMPERATURE IN FAHRENHEIT DWPT - DEWPOINT IN FAHRENHEIT RH - RELATIVE HUMIDITY IN PERCENT WIND - DIRECTION AND SPEED IN MPH PRES - MEAN SEA LEVEL PRESSURE IN INCHES OF HG WCI - WIND CHILL INDEX VSB - VISIBILITY IN MILES HX - HEAT INDEX TC - TEMPERATURE IN CELSIUS VRB - VARIABLE WIND DIRECTION N/A - NOT AVAILABLE

USA.gov is the U.S. government's official web portal to all federal, state and local government web resources and services.